Weather History for Milton, FL

Change the Weather History Date:

Tuesday, October 2, 2012

  Actual Average (KNSE) Record (KNSE)
Temperature  
Mean Temperature 71 °F -  
Max Temperature 79 °F 80 °F 89 °F (2006)
Min Temperature 63 °F 62 °F 46 °F (2011)
Cooling Degree Days 6    
Growing Degree Days 21 (Base 50)    
Moisture  
Dew Point 60 °F    
Average Humidity 76    
Maximum Humidity 93    
Minimum Humidity 50    
Precipitation  
Precipitation 0.00 in - - ()
Sea Level Pressure  
Sea Level Pressure 29.82 in    
Wind  
Wind Speed 3 mph (NNW)    
Max Wind Speed 10 mph    
Max Gust Speed -    
Visibility 10 miles    
Events      
Averages and records for this station are not official NWS values.
T = Trace of Precipitation, MM = Missing Value Source: NWS Daily Summary

Daily Weather History Graph

Daily Weather History Graph

Search for Another Location

Airport:

Trip Planner

Search our weather history database for the weather conditions in past years. The results will help you decide how hot, cold, wet, or windy it might be!

Date:

Astronomy

Oct. 02, 2012 Rise Set
Actual Time 6:42 AM CDT 6:31 PM CDT
Civil Twilight 6:18 AM CDT 6:55 PM CDT
Nautical Twilight 5:50 AM CDT 7:23 PM CDT
Astronomical Twilight 5:22 AM CDT 7:51 PM CDT
Moon 7:58 PM CDT (10/2) 8:56 AM CDT (10/2)
Length of Visible Light 12h 37m
Length of Day
11h 48m
Waning Gibbous, 94% of the Moon is Illuminated
Oct 2
Waning Gibbous
Oct 8
Last Quarter
Oct 15
New
Oct 21
First Quarter
Oct 29
Full

Hourly Weather History & Observations

Time (CDT) Temp. Dew Point Humidity Pressure Visibility Wind Dir Wind Speed Gust Speed Precip Events Conditions
12:56 AM 66.0 °F 60.1 °F 81% 29.69 in 10.0 mi Calm Calm - N/A   Overcast
1:56 AM 64.9 °F 61.0 °F 87% 29.70 in 10.0 mi Calm Calm - N/A   Overcast
2:56 AM 64.0 °F 61.0 °F 90% 29.70 in 10.0 mi Calm Calm - N/A   Mostly Cloudy
3:24 AM 64.4 °F 60.8 °F 88% 29.74 in 10.0 mi Calm Calm - N/A   Overcast
3:56 AM 66.9 °F 61.0 °F 81% 29.70 in 10.0 mi Calm Calm - N/A   Overcast
4:09 AM 64.4 °F 60.8 °F 88% 29.75 in 10.0 mi Calm Calm - N/A   Mostly Cloudy
4:56 AM 63.0 °F 61.0 °F 93% 29.72 in 10.0 mi Calm Calm - N/A   Scattered Clouds
5:56 AM 64.0 °F 62.1 °F 93% 29.74 in 10.0 mi South 3.5 mph - N/A   Overcast
6:56 AM 64.0 °F 61.0 °F 90% 29.76 in 10.0 mi Calm Calm - N/A   Overcast
7:54 AM 66.2 °F 60.8 °F 83% 29.83 in 10.0 mi WNW 4.6 mph - N/A   Partly Cloudy
7:56 AM 66.0 °F 61.0 °F 84% 29.79 in 10.0 mi WNW 4.6 mph - N/A   Partly Cloudy
8:12 AM 64.4 °F 60.8 °F 88% 29.83 in 10.0 mi Variable 5.8 mph - N/A   Mostly Cloudy
8:42 AM 66.2 °F 60.8 °F 83% 29.85 in 10.0 mi Variable 4.6 mph - N/A   Partly Cloudy
8:56 AM 68.0 °F 60.1 °F 76% 29.81 in 10.0 mi NW 9.2 mph - N/A   Partly Cloudy
9:21 AM 69.8 °F 60.8 °F 73% 29.85 in 10.0 mi WNW 5.8 mph - N/A   Mostly Cloudy
9:56 AM 69.1 °F 61.0 °F 75% 29.83 in 10.0 mi WNW 5.8 mph - N/A   Overcast
10:44 AM 69.8 °F 60.8 °F 73% 29.88 in 10.0 mi Variable 4.6 mph - N/A   Overcast
10:56 AM 70.0 °F 61.0 °F 73% 29.84 in 10.0 mi Variable 4.6 mph - N/A   Overcast
11:43 AM 69.8 °F 60.8 °F 73% 29.88 in 10.0 mi West 8.1 mph - N/A   Overcast
11:56 AM 73.0 °F 61.0 °F 66% 29.84 in 10.0 mi Variable 5.8 mph - N/A   Mostly Cloudy
12:56 PM 75.0 °F 60.1 °F 60% 29.83 in 10.0 mi NW 4.6 mph - N/A   Scattered Clouds
1:56 PM 77.0 °F 57.9 °F 52% 29.83 in 10.0 mi Calm Calm - N/A   Mostly Cloudy
2:56 PM 79.0 °F 59.0 °F 50% 29.84 in 10.0 mi NNW 10.4 mph - N/A   Mostly Cloudy
3:56 PM 78.1 °F 57.9 °F 50% 29.84 in 10.0 mi NW 9.2 mph - N/A   Mostly Cloudy
4:56 PM 75.9 °F 57.9 °F 54% 29.84 in 10.0 mi NW 5.8 mph - N/A   Partly Cloudy
5:56 PM 73.0 °F 59.0 °F 61% 29.86 in 10.0 mi NNW 3.5 mph - N/A   Clear
6:56 PM 69.1 °F 59.0 °F 70% 29.87 in 10.0 mi NNW 3.5 mph - N/A   Clear
7:56 PM 64.0 °F 60.1 °F 87% 29.90 in 10.0 mi NNW 3.5 mph - N/A   Clear
8:56 PM 66.0 °F 57.9 °F 75% 29.93 in 10.0 mi NNE 6.9 mph - N/A   Clear
9:56 PM 64.9 °F 59.0 °F 81% 29.96 in 10.0 mi NNE 6.9 mph - N/A   Clear
10:56 PM 64.0 °F 57.9 °F 80% 29.97 in 10.0 mi NNE 5.8 mph - N/A   Clear
11:56 PM 63.0 °F 57.9 °F 84% 29.98 in 10.0 mi NE 3.5 mph - N/A   Partly Cloudy